Regional Weather Roundup
Issued by NWS Sterling, VA

Home | Current Version | Previous Version | Text Only | Print | Product List | Glossary Off
Versions: 1 2 3 4 5 6 7 8 9 10 11 12 13 14 15 16 17 18 19 20 21 22 23 24 25 26 27 28 29 30 31 32 33 34 35 36 37 38 39 40 41 42 43 44 45 46 47 48 49 50

000
ASUS41 KLWX 211511
RWRLWX

REGIONAL WEATHER ROUNDUP
NATIONAL WEATHER SERVICE BALTIMORE MD/WASHINGTON DC
1100 AM EDT MON AUG 21 2017

Note: "FAIR" indicates few or no clouds below 12,000 feet
with no significant weather and/or obstructions to visibility.
 TC=TEMPERATURE CELSIUS

 * =Non NWS site. Station does not report precipitation (e.g. rain,
    snow, etc.), thunder, or fog.

DCZ001-MDZ009-015-VAZ040>042-051-053>054-211600-
WASHINGTON METRO

CITY           SKY/WX    TMP DP  RH WIND       PRES   REMARKS
WASHINGTON NAT MOSUNNY   82  76  81 S12       30.20S
DULLES         MOSUNNY   82  75  79 SW7       30.20S
ANDREWS AFB    MOSUNNY   83  74  75 S7        30.20R HX  90
FT BELVOIR     MOSUNNY   81  73  78 S5        30.20R
QUANTICO       PTSUNNY   80  77  90 S8        30.21S
COLLEGE PARK*  MOSUNNY   82  73  73 CALM      30.20R
LEESBURG*      SUNNY     82  75  78 S3        30.21S
MANASSAS*      SUNNY     83  75  77 S5        30.20S HX  90
GAITHERSBURG*  MOSUNNY   84  74  71 VRB3      30.22R HX  91

$$

MDZ006>007-011-014-211600-
BALTIMORE METRO

CITY           SKY/WX    TMP DP  RH WIND       PRES   REMARKS
BWI AIRPORT    MOSUNNY   84  73  69 S7        30.20R HX  90
MD SCIENCE CTR   N/A     85  73  67 MISG      30.21S HX  91
MARTIN STATE   MOSUNNY   82  73  74 SE9       30.22R
ANNAPOLIS      MOSUNNY   83  78  85 S9        30.20R HX  93
FORT MEADE*    SUNNY     81  72  74 S6        30.22R

$$

MDZ012-015-019>023-211600-
MARYLAND EASTERN SHORE

CITY           SKY/WX    TMP DP  RH WIND       PRES   REMARKS
OCEAN CITY     SUNNY     80  75  84 SW8       30.23S
SALISBURY      PTSUNNY   83  68  60 S6        30.22S
BAY BRIDGE AP* MOSUNNY   86  73  66 S10       30.21R HX  93
CAMBRIDGE*     MOSUNNY   81  72  74 S7        30.21S

$$

MDZ017>025-211600-
SOUTHERN MARYLAND

CITY           SKY/WX    TMP DP  RH WIND       PRES   REMARKS
PATUXENT RIVER PTSUNNY   84  77  79 SE7       30.20S HX  94
ST INIGOES     SUNNY     84  77  79 SE6       30.20S HX  94
LEONARDTOWN*   MOSUNNY   82  73  74 SE7       30.23R

$$

MDZ003>005-211600-
NORTH CENTRAL MARYLAND

CITY           SKY/WX    TMP DP  RH WIND       PRES   REMARKS
FREDERICK*     SUNNY     82  72  69 SW3       30.23R
HAGERSTOWN APT SUNNY     81  70  69 CALM      30.21S
WESTMINSTER*   PTSUNNY   81  73  78 W3        30.22S

$$

MDZ501>502-211600-
WESTERN MARYLAND

CITY           SKY/WX    TMP DP  RH WIND       PRES   REMARKS
OAKLAND*       MOSUNNY   73  63  68 SW7       30.30R
CUMBERLAND*    NOT AVBL

$$

VAZ025>031-211600-
SHENANDOAH VALLEY

CITY           SKY/WX    TMP DP  RH WIND       PRES   REMARKS
WINCHESTER*    SUNNY     81  70  69 S3        30.20S
FRONT ROYAL*   SUNNY     82  72  69 SE3       30.19S
LURAY*         SUNNY     84  72  65 SW6       30.21S
NEW MARKET*    SUNNY     83  70  63 SW5       30.20S
STAUNTON*      SUNNY     81  71  69 S5        30.25S
WAYNESBORO*    SUNNY     82  72  71 SW3       30.25S

$$

WVZ021-048>050-054>055-211600-
EASTERN WEST VIRGINIA PANHANDLE

CITY           SKY/WX    TMP DP  RH WIND       PRES   REMARKS
MARTINSBURG    SUNNY     81  68  64 CALM      30.20S
PETERSBURG*    SUNNY     84  74  71 CALM      30.21F HX  90

$$

VAZ036>039-050-211600-
CENTRAL FOOTHILLS

CITY           SKY/WX    TMP DP  RH WIND       PRES   REMARKS
CHARLOTTESVILL SUNNY     84  74  71 CALM      30.21S HX  91
CULPEPER*      SUNNY     85  75  72 S5        30.20F HX  93
ORANGE*        SUNNY     86  73  66 CALM      30.20F HX  93
GORDONSVILLE*  SUNNY     84  76  75 S5        30.20S HX  93
WARRENTON*     SUNNY     85  71  63 SE5       30.20S HX  90

$$

VAZ055>057-211600-
NORTH AND CENTRAL PIEDMONT

CITY           SKY/WX    TMP DP  RH WIND       PRES   REMARKS
FREDERICKSBRG* SUNNY     83  75  78 SE3       30.19S HX  90
STAFFORD*      SUNNY     83  78  84 CALM      30.24S HX  92

$$

NCZ024-NYZ072-PAZ021-071-VAZ022-071-211600-
OTHER REGIONAL OBSERVATIONS

CITY           SKY/WX    TMP DP  RH WIND       PRES   REMARKS
NEW YORK CITY  MOSUNNY   81  65  58 SW3       30.22S
PHILADELPHIA   PTSUNNY   82  63  52 S6        30.22R
PITTSBURGH     MOSUNNY   80  69  69 SW10      30.19S
ROANOKE        SUNNY     85  68  56 N3        30.26F
RICHMOND       MOSUNNY   83  75  77 S7        30.21S HX  90
RALEIGH        PTSUNNY   88  72  58 SE3       30.24R HX  94

$$

ANZ530>537-211600-
MARINE OBSERVATIONS

STATION/POSITION TIME  TEMP    WIND        PRES
                       AIR SEA DIR/SP/G
                 (UTC) (F)     (DEG/KT/KT) (MB)
THOMAS PT LIGHT  1500   79 81  170/ 11/ 12   N/A
BALT KEY BRIDGE  1436   80     170/  8/ 11 1022.5R
COVE POINT       1436   80     180/ 11/ 12 1023.5R
LEWISETTA        1436   82 83  190/  6/  8 1022.7S
SOLOMONS ISLAND  1436   82 82  170/  6/  8   N/A
PINEY POINT      1436          160/  8/  9   N/A

$$




USA.gov is the U.S. government's official web portal to all federal, state and local government web resources and services.